Time,TemperatureF,DewpointF,PressureIn,WindDirection,WindDirectionDegrees,WindSpeedMPH,WindSpeedGustMPH,Humidity,HourlyPrecipIn,Conditions,Clouds,dailyrainin,SoftwareType,DateUTC
2013-03-10 12:00:00,47.3,26.4,30.25,SW,225,1.1,1.1,44,0.00,,,0.00,WUHU216HW,2013-03-10 18:00:00,
2013-03-10 12:01:00,47.5,26.6,30.25,SE,135,0.9,1.1,44,0.00,,,0.00,WUHU216HW,2013-03-10 18:01:00,
2013-03-10 12:06:00,47.9,26.8,30.25,West,270,0.7,1.6,44,0.00,,,0.00,WUHU216HW,2013-03-10 18:06:00,
2013-03-10 12:11:00,47.9,26.8,30.25,West,270,0.7,1.6,44,0.00,,,0.00,WUHU216HW,2013-03-10 18:11:00,
2013-03-10 12:37:00,49.1,24.5,30.23,South,180,1.3,1.3,38,0.00,,,0.00,WUHU216HW,2013-03-10 18:37:00,
2013-03-10 12:42:00,49.1,24.5,30.23,South,180,1.3,1.3,38,0.00,,,0.00,WUHU216HW,2013-03-10 18:42:00,
2013-03-10 13:00:00,50.8,24.6,30.22,ENE,68,3.6,3.6,36,0.00,,,0.00,WUHU216HW,2013-03-10 19:00:00,
2013-03-10 13:05:00,50.8,24.6,30.22,ENE,68,3.6,3.6,36,0.00,,,0.00,WUHU216HW,2013-03-10 19:05:00,
2013-03-10 13:30:00,51.8,23.5,30.21,East,90,2.5,2.5,33,0.00,,,0.00,WUHU216HW,2013-03-10 19:30:00,
2013-03-10 13:35:00,51.8,23.5,30.21,East,90,2.5,2.5,33,0.00,,,0.00,WUHU216HW,2013-03-10 19:35:00,
2013-03-10 14:00:00,52.4,23.3,30.18,NNE,23,4.0,4.0,32,0.00,,,0.00,WUHU216HW,2013-03-10 20:00:00,
2013-03-10 14:05:00,52.4,23.3,30.18,NNE,23,4.0,4.0,32,0.00,,,0.00,WUHU216HW,2013-03-10 20:05:00,
2013-03-10 14:30:00,54.0,25.4,30.15,ENE,68,5.1,5.1,33,0.00,,,0.00,WUHU216HW,2013-03-10 20:30:00,
2013-03-10 14:35:00,54.0,25.4,30.15,ENE,68,5.1,5.1,33,0.00,,,0.00,WUHU216HW,2013-03-10 20:35:00,
2013-03-10 15:00:00,55.3,25.0,30.14,NNE,23,5.4,5.4,31,0.00,,,0.00,WUHU216HW,2013-03-10 21:00:00,
2013-03-10 15:05:00,55.3,25.0,30.14,NNE,23,5.4,5.4,31,0.00,,,0.00,WUHU216HW,2013-03-10 21:05:00,
2013-03-10 15:30:00,54.4,24.3,30.14,East,90,1.8,1.8,31,0.00,,,0.00,WUHU216HW,2013-03-10 21:30:00,
2013-03-10 15:35:00,54.4,24.3,30.14,East,90,1.8,1.8,31,0.00,,,0.00,WUHU216HW,2013-03-10 21:35:00,
2013-03-10 16:00:00,54.7,24.6,30.13,ENE,68,1.1,1.1,31,0.00,,,0.00,WUHU216HW,2013-03-10 22:00:00,
2013-03-10 16:05:00,54.7,24.6,30.13,ENE,68,1.1,1.1,31,0.00,,,0.00,WUHU216HW,2013-03-10 22:05:00,
2013-03-10 16:30:00,54.7,24.0,30.12,North,0,4.3,4.3,30,0.00,,,0.00,WUHU216HW,2013-03-10 22:30:00,
2013-03-10 16:35:00,54.7,24.0,30.12,North,0,4.3,4.3,30,0.00,,,0.00,WUHU216HW,2013-03-10 22:35:00,
2013-03-10 17:00:00,55.1,23.2,30.10,NNE,23,2.0,2.0,29,0.00,,,0.00,WUHU216HW,2013-03-10 23:00:00,
2013-03-10 17:05:00,55.1,23.2,30.10,NNE,23,2.0,2.0,29,0.00,,,0.00,WUHU216HW,2013-03-10 23:05:00,
2013-03-10 17:30:00,55.1,23.2,30.09,North,0,2.9,2.9,29,0.00,,,0.00,WUHU216HW,2013-03-10 23:30:00,
2013-03-10 17:35:00,55.1,23.2,30.09,North,0,2.9,2.9,29,0.00,,,0.00,WUHU216HW,2013-03-10 23:35:00,
2013-03-10 18:00:00,54.9,23.1,30.10,ENE,68,1.1,1.1,29,0.00,,,0.00,WUHU216HW,2013-03-11 00:00:00,
2013-03-10 18:05:00,54.9,23.1,30.10,ENE,68,1.1,1.1,29,0.00,,,0.00,WUHU216HW,2013-03-11 00:05:00,
2013-03-10 18:30:00,53.5,23.6,30.10,NNW,338,0.0,0.0,31,0.00,,,0.00,WUHU216HW,2013-03-11 00:30:00,
2013-03-10 18:35:00,53.5,23.6,30.10,NNW,338,0.0,0.0,31,0.00,,,0.00,WUHU216HW,2013-03-11 00:35:00,
2013-03-10 19:00:00,51.3,25.0,30.10,NNW,338,0.0,0.0,36,0.00,,,0.00,WUHU216HW,2013-03-11 01:00:00,
2013-03-10 19:05:00,51.3,25.0,30.10,NNW,338,0.0,0.0,36,0.00,,,0.00,WUHU216HW,2013-03-11 01:05:00,
2013-03-10 19:30:00,48.6,24.7,30.11,NNE,23,0.7,0.7,39,0.00,,,0.00,WUHU216HW,2013-03-11 01:30:00,